Regional Weather Roundup
Issued by NWS

Home | Current Version | Previous Version | Text Only | Print | Product List | Glossary On
Versions: 1 2 3 4 5 6 7 8 9 10 11 12 13 14 15 16 17 18 19 20 21 22 23 24 25 26 27
000
ASPQ40 PGUM 292212
RWRPQ
WEATHER ROUNDUP FOR THE MARIANAS AND MICRONESIA
NATIONAL WEATHER SERVICE TIYAN GU
800 AM CHST SUN APR 30 2017

GUZ001>004-292300-
MARIANA ISLANDS-

CITY           SKY/WX    TMP DP  RH WIND       PRES   REMARKS
GUAM AIRPORT   LGT RAIN  82  79  89 E5        29.97R HX  93
ANDERSEN AFB   MOSUNNY   82  75  78 E10       29.98R
ROTA AIRPORT   MOSUNNY   81  75  83 E9        29.97R
TINIAN AP      MOSUNNY   82  75  78 E8        29.96R
SAIPAN AP      MOSUNNY   81  75  83 E12       29.97R

$$

PMZ161-292300-
REPUBLIC OF PALAU-

CITY           SKY/WX    TMP DP  RH WIND       PRES   REMARKS
KOROR AP       NOT AVBL
KOROR WSO      PTSUNNY   82  79  89 CALM      29.88S HX  93

$$

PMZ171>174-292300-
FEDERATED STATES OF MICRONESIA-

CITY           SKY/WX    TMP DP  RH WIND       PRES   REMARKS
YAP AIRPORT    PTSUNNY   79  77  94 VRB3      29.90R
CHUUK AP       PTSUNNY   86  81  84 VRB6      29.89R HX 102
POHNPEI AP     NOT AVBL
POHNPEI WSO    LGT RAIN  82  77  83 N9        29.92R HX  91
KOSRAE AP      NOT AVBL

$$

PMZ181-292300-
REPUBLIC OF THE MARSHALL ISLANDS-

CITY           SKY/WX    TMP DP  RH WIND       PRES   REMARKS
KWAJALEIN AP   MOSUNNY   86  72  62 E17G24    29.91S HX  92
MAJURO AP      NOT AVBL
MAJURO WSO     CLOUDY    84  75  74 E18       29.85S HX  92

$$





USA.gov is the U.S. government's official web portal to all federal, state and local government web resources and services.